NWS725 UWKD-URWA

Flight info

Callsign NWS725
Flight time 1h 41m
Altitude 34000
Route SONUM1G SONUM T766 DOGIT P165 DAFOS P135 UROBO R807 MOLED/K0837F350 N50 LIDUS/K0835F340 G242 OMIRA OMIRA5L
Aircraft A21N/M-SDE3FGHIRWY/LB1

Departure

Time 2026-05-07 18:14
Airport Kazan International Airport (UWKD)

Arrival

Time 2026-05-07 19:55
Airport Astrakhan Narimanovo Boris M. Kustodiev International Airport (URWA)
Time Latitude Longitude Altitude Speed Heading
2026-05-07 17:25 55.60903 49.29446 406 ft 0 kts 33°
2026-05-07 17:27 55.60807 49.29689 412 ft 0 kts 34°
2026-05-07 17:50 55.60796 49.29676 412 ft 2 kts 30°
2026-05-07 17:50 55.60783 49.29663 412 ft 2 kts 27°
2026-05-07 17:50 55.60769 49.29651 412 ft 2 kts 25°
2026-05-07 17:51 55.60756 49.29639 412 ft 2 kts 26°
2026-05-07 17:51 55.60744 49.29629 412 ft 2 kts 24°
2026-05-07 17:51 55.60731 49.29618 412 ft 2 kts 25°
2026-05-07 17:51 55.60719 49.29609 413 ft 1 kts 24°
2026-05-07 17:52 55.60715 49.29605 413 ft 0 kts 34°
2026-05-07 18:02 55.60717 49.29607 413 ft 1 kts 34°
2026-05-07 18:02 55.60739 49.29610 413 ft 8 kts 324°
2026-05-07 18:02 55.60806 49.29495 409 ft 15 kts 298°
2026-05-07 18:03 55.60768 49.29392 409 ft 9 kts 217°
2026-05-07 18:03 55.60697 49.29293 409 ft 19 kts 216°
2026-05-07 18:03 55.60583 49.29103 404 ft 21 kts 256°
2026-05-07 18:03 55.60583 49.28871 401 ft 21 kts 272°
2026-05-07 18:04 55.60613 49.28572 398 ft 26 kts 300°
2026-05-07 18:04 55.60717 49.28297 394 ft 29 kts 304°
2026-05-07 18:04 55.60830 49.28011 392 ft 28 kts 305°
2026-05-07 18:04 55.60941 49.27723 385 ft 28 kts 303°
2026-05-07 18:05 55.61055 49.27429 379 ft 29 kts 304°
2026-05-07 18:05 55.61171 49.27127 372 ft 29 kts 305°
2026-05-07 18:05 55.61288 49.26826 367 ft 29 kts 304°
2026-05-07 18:05 55.61404 49.26529 361 ft 29 kts 304°
2026-05-07 18:06 55.61521 49.26226 356 ft 29 kts 305°
2026-05-07 18:06 55.61635 49.25929 351 ft 29 kts 303°
2026-05-07 18:06 55.61750 49.25635 346 ft 27 kts 303°
2026-05-07 18:06 55.61826 49.25440 342 ft 0 kts 304°
2026-05-07 18:08 55.61826 49.25438 342 ft 1 kts 304°
2026-05-07 18:08 55.61851 49.25360 341 ft 10 kts 284°
2026-05-07 18:09 55.61811 49.25243 339 ft 11 kts 216°
2026-05-07 18:09 55.61807 49.25237 339 ft 0 kts 216°
2026-05-07 18:12 55.61805 49.25234 339 ft 0 kts 216°
2026-05-07 18:12 55.61781 49.25205 339 ft 11 kts 215°
2026-05-07 18:13 55.61696 49.25156 339 ft 12 kts 156°
2026-05-07 18:13 55.61654 49.25230 342 ft 0 kts 125°
2026-05-07 18:13 55.61617 49.25324 344 ft 37 kts 124°
2026-05-07 18:14 55.61340 49.26040 357 ft 103 kts 124°
2026-05-07 18:14 55.60817 49.27383 379 ft 159 kts 123°
2026-05-07 18:14 55.60113 49.29169 564 ft 188 kts 125°
2026-05-07 18:14 55.59306 49.31026 1127 ft 195 kts 126°
2026-05-07 18:15 55.58544 49.32913 2057 ft 185 kts 120°
2026-05-07 18:15 55.57863 49.34774 2652 ft 184 kts 120°
2026-05-07 18:15 55.57137 49.36750 2961 ft 201 kts 121°
2026-05-07 18:15 55.56337 49.38876 3322 ft 218 kts 122°
2026-05-07 18:16 55.55439 49.41207 3689 ft 235 kts 123°
2026-05-07 18:16 55.54229 49.43235 3964 ft 256 kts 152°
2026-05-07 18:16 55.52456 49.43841 3973 ft 269 kts 185°
2026-05-07 18:16 55.50729 49.42652 3990 ft 273 kts 218°
2026-05-07 18:17 55.49588 49.40019 3996 ft 274 kts 245°
2026-05-07 18:17 55.48761 49.37011 3963 ft 274 kts 235°
2026-05-07 18:17 55.47329 49.34837 3980 ft 273 kts 207°
2026-05-07 18:17 55.45622 49.33410 3989 ft 273 kts 202°
2026-05-07 18:18 55.43860 49.32097 4189 ft 279 kts 201°
2026-05-07 18:18 55.42077 49.30771 5036 ft 281 kts 202°
2026-05-07 18:18 55.40276 49.29405 5914 ft 282 kts 202°
2026-05-07 18:18 55.38485 49.28029 6693 ft 287 kts 203°
2026-05-07 18:19 55.36665 49.26621 7402 ft 291 kts 204°
2026-05-07 18:19 55.34795 49.25171 7827 ft 293 kts 204°
2026-05-07 18:19 55.33013 49.23788 7938 ft 294 kts 204°
2026-05-07 18:19 55.31135 49.22332 7934 ft 292 kts 204°
2026-05-07 18:20 55.29286 49.20900 7940 ft 292 kts 204°
2026-05-07 18:20 55.27458 49.19400 7948 ft 292 kts 212°
2026-05-07 18:20 55.25972 49.16984 7948 ft 291 kts 233°
2026-05-07 18:20 55.24821 49.14108 7948 ft 290 kts 237°
2026-05-07 18:21 55.23708 49.11190 7946 ft 290 kts 237°
2026-05-07 18:21 55.22556 49.08266 7939 ft 290 kts 236°
2026-05-07 18:21 55.21385 49.05407 7934 ft 291 kts 235°
2026-05-07 18:21 55.20195 49.02573 7929 ft 291 kts 234°
2026-05-07 18:22 55.18986 48.99743 7928 ft 291 kts 234°
2026-05-07 18:22 55.18167 48.97844 7929 ft 291 kts 234°
2026-05-07 18:22 55.16536 48.94082 7923 ft 291 kts 234°
2026-05-07 18:22 55.15316 48.91282 7917 ft 292 kts 233°
2026-05-07 18:23 55.14088 48.88473 7918 ft 291 kts 234°
2026-05-07 18:23 55.12868 48.85685 7916 ft 291 kts 234°
2026-05-07 18:23 55.11648 48.82898 7914 ft 291 kts 234°
2026-05-07 18:23 55.10409 48.80073 7921 ft 291 kts 234°
2026-05-07 18:24 55.09186 48.77288 7917 ft 291 kts 233°
2026-05-07 18:24 55.07961 48.74503 7898 ft 292 kts 234°
2026-05-07 18:24 55.06717 48.71677 7923 ft 292 kts 234°
2026-05-07 18:24 55.05484 48.68882 7919 ft 292 kts 234°
2026-05-07 18:25 55.04257 48.66099 7918 ft 291 kts 234°
2026-05-07 18:25 55.03011 48.63279 7917 ft 292 kts 234°
2026-05-07 18:25 55.01781 48.60497 7918 ft 292 kts 234°
2026-05-07 18:25 55.00550 48.57715 7920 ft 292 kts 234°
2026-05-07 18:26 54.99298 48.54891 7917 ft 293 kts 234°
2026-05-07 18:26 54.98064 48.52109 7911 ft 292 kts 233°
2026-05-07 18:26 54.96831 48.49332 7929 ft 294 kts 234°
2026-05-07 18:26 54.95559 48.46472 8343 ft 301 kts 234°
2026-05-07 18:27 54.93893 48.42734 9452 ft 300 kts 234°
2026-05-07 18:27 54.91501 48.37381 10879 ft 303 kts 234°
2026-05-07 18:27 54.90189 48.34435 11239 ft 319 kts 233°
2026-05-07 18:27 54.88785 48.31290 11538 ft 336 kts 233°
2026-05-07 18:28 54.87419 48.27922 11823 ft 350 kts 241°
2026-05-07 18:28 54.86343 48.24016 12091 ft 364 kts 251°
2026-05-07 18:28 54.85609 48.19770 12379 ft 377 kts 256°
2026-05-07 18:28 54.84958 48.15366 12895 ft 383 kts 257°
2026-05-07 18:29 54.84302 48.10855 13553 ft 385 kts 257°
2026-05-07 18:29 54.83648 48.06384 14173 ft 387 kts 257°
2026-05-07 18:29 54.82982 48.01893 14782 ft 390 kts 257°
2026-05-07 18:29 54.82296 47.97298 15377 ft 392 kts 257°
2026-05-07 18:30 54.81609 47.92727 15939 ft 396 kts 257°
2026-05-07 18:30 54.80915 47.88132 16482 ft 399 kts 257°
2026-05-07 18:30 54.80211 47.83488 17025 ft 402 kts 257°
2026-05-07 18:30 54.79497 47.78792 17475 ft 407 kts 257°
2026-05-07 18:31 54.78770 47.74013 17662 ft 418 kts 256°
2026-05-07 18:31 54.78019 47.69096 17900 ft 428 kts 257°
2026-05-07 18:31 54.77245 47.64061 18290 ft 433 kts 256°
2026-05-07 18:31 54.76473 47.59040 18609 ft 439 kts 256°
2026-05-07 18:32 54.75685 47.53937 18900 ft 445 kts 256°
2026-05-07 18:32 54.74876 47.48716 19311 ft 448 kts 256°
2026-05-07 18:32 54.74073 47.43541 19752 ft 450 kts 256°
2026-05-07 18:32 54.73263 47.38350 20189 ft 452 kts 256°
2026-05-07 18:33 54.72435 47.33054 20603 ft 454 kts 255°
2026-05-07 18:33 54.71607 47.27782 20997 ft 456 kts 255°
2026-05-07 18:33 54.70778 47.22523 21396 ft 458 kts 255°
2026-05-07 18:33 54.69944 47.17247 21796 ft 460 kts 255°
2026-05-07 18:34 54.69076 47.11975 22185 ft 461 kts 252°
2026-05-07 18:34 54.67594 47.07026 22483 ft 466 kts 235°
2026-05-07 18:34 54.65350 47.03059 22824 ft 469 kts 219°
2026-05-07 18:34 54.62532 47.00305 23135 ft 473 kts 202°
2026-05-07 18:35 54.59311 46.98822 23484 ft 476 kts 193°
2026-05-07 18:35 54.56094 46.97638 23783 ft 478 kts 193°
2026-05-07 18:35 54.52860 46.96439 24012 ft 481 kts 193°
2026-05-07 18:35 54.49559 46.95204 24226 ft 484 kts 193°
2026-05-07 18:36 54.46289 46.93975 24487 ft 486 kts 193°
2026-05-07 18:36 54.43005 46.92735 24695 ft 489 kts 193°
2026-05-07 18:36 54.39657 46.91472 24901 ft 491 kts 193°
2026-05-07 18:36 54.36340 46.90221 25104 ft 493 kts 193°
2026-05-07 18:37 54.33011 46.88967 25308 ft 495 kts 193°
2026-05-07 18:37 54.29624 46.87693 25492 ft 497 kts 193°
2026-05-07 18:37 54.26269 46.86436 25686 ft 498 kts 193°
2026-05-07 18:37 54.22904 46.85212 25925 ft 498 kts 192°
2026-05-07 18:38 54.19524 46.84104 26181 ft 498 kts 191°
2026-05-07 18:38 54.16099 46.83027 26436 ft 498 kts 191°
2026-05-07 18:38 54.12725 46.81969 26689 ft 497 kts 191°
2026-05-07 18:38 54.09356 46.80906 26944 ft 496 kts 191°
2026-05-07 18:39 54.05945 46.79820 27197 ft 496 kts 191°
2026-05-07 18:39 54.02584 46.78746 27442 ft 495 kts 191°
2026-05-07 18:39 53.99218 46.77690 27679 ft 495 kts 191°
2026-05-07 18:39 53.95813 46.76642 27925 ft 494 kts 191°
2026-05-07 18:40 53.92459 46.75614 28159 ft 494 kts 191°
2026-05-07 18:40 53.89098 46.74585 28379 ft 494 kts 191°
2026-05-07 18:40 53.85871 46.73596 28588 ft 493 kts 191°
2026-05-07 18:40 53.82444 46.72546 28818 ft 493 kts 191°
2026-05-07 18:41 53.79089 46.71520 29034 ft 492 kts 191°
2026-05-07 18:41 53.75750 46.70483 29239 ft 492 kts 191°
2026-05-07 18:41 53.72419 46.69412 29459 ft 491 kts 191°
2026-05-07 18:41 53.69047 46.68319 29666 ft 491 kts 192°
2026-05-07 18:42 53.65714 46.67239 29867 ft 490 kts 192°
2026-05-07 18:42 53.62374 46.66161 30078 ft 490 kts 192°
2026-05-07 18:42 53.59045 46.65089 30289 ft 489 kts 192°
2026-05-07 18:42 53.55729 46.64027 30476 ft 489 kts 192°
2026-05-07 18:43 53.52413 46.62967 30645 ft 488 kts 192°
2026-05-07 18:43 53.49058 46.61897 30822 ft 488 kts 192°
2026-05-07 18:43 53.45750 46.60859 31000 ft 488 kts 191°
2026-05-07 18:43 53.42441 46.59836 31164 ft 487 kts 191°
2026-05-07 18:44 53.39093 46.58803 31342 ft 487 kts 191°
2026-05-07 18:44 53.35794 46.57786 31510 ft 486 kts 192°
2026-05-07 18:44 53.32499 46.56770 31668 ft 485 kts 192°
2026-05-07 18:44 53.29162 46.55741 31829 ft 485 kts 192°
2026-05-07 18:45 53.25872 46.54728 31977 ft 485 kts 192°
2026-05-07 18:45 53.22584 46.53719 32116 ft 484 kts 192°
2026-05-07 18:45 53.19254 46.52697 32260 ft 484 kts 192°
2026-05-07 18:45 53.15973 46.51692 32408 ft 483 kts 192°
2026-05-07 18:46 53.12688 46.50687 32548 ft 483 kts 192°
2026-05-07 18:46 53.09395 46.49681 32695 ft 482 kts 192°
2026-05-07 18:46 53.06107 46.48678 32838 ft 481 kts 192°
2026-05-07 18:46 53.02832 46.47680 32969 ft 481 kts 192°
2026-05-07 18:47 52.99514 46.46672 33107 ft 480 kts 192°
2026-05-07 18:47 52.96260 46.45684 33241 ft 479 kts 192°
2026-05-07 18:47 52.93009 46.44700 33364 ft 479 kts 192°
2026-05-07 18:48 52.86573 46.42758 33532 ft 479 kts 192°
2026-05-07 18:48 52.79984 46.40774 33707 ft 480 kts 192°
2026-05-07 18:49 52.73625 46.38866 33888 ft 479 kts 192°
2026-05-07 18:49 52.67092 46.36911 33919 ft 479 kts 192°
2026-05-07 18:50 52.60520 46.34951 33927 ft 479 kts 191°
2026-05-07 18:50 52.53935 46.32991 33924 ft 481 kts 191°
2026-05-07 18:51 52.47402 46.31052 33922 ft 481 kts 191°
2026-05-07 18:51 52.40817 46.29107 33925 ft 481 kts 191°
2026-05-07 18:52 52.34282 46.27180 33931 ft 481 kts 191°
2026-05-07 18:52 52.27703 46.25248 33925 ft 481 kts 191°
2026-05-07 18:53 52.21108 46.23315 33928 ft 482 kts 191°
2026-05-07 18:53 52.14563 46.21404 33932 ft 482 kts 191°
2026-05-07 18:54 52.08080 46.19521 33925 ft 483 kts 191°
2026-05-07 18:54 52.01557 46.17629 33917 ft 483 kts 191°
2026-05-07 18:55 51.94986 46.15726 33919 ft 483 kts 191°
2026-05-07 18:55 51.88369 46.13813 33918 ft 483 kts 191°
2026-05-07 18:56 51.81801 46.11921 33915 ft 484 kts 191°
2026-05-07 18:56 51.75152 46.10008 33915 ft 485 kts 191°
2026-05-07 18:57 51.68559 46.08117 33915 ft 486 kts 191°
2026-05-07 18:57 51.61922 46.06139 33917 ft 486 kts 193°
2026-05-07 18:58 51.55417 46.03254 33910 ft 485 kts 199°
2026-05-07 18:58 51.49199 45.99258 33917 ft 484 kts 206°
2026-05-07 18:59 51.43112 45.94590 33922 ft 485 kts 206°
2026-05-07 18:59 51.37052 45.89976 33929 ft 486 kts 206°
2026-05-07 19:00 51.30941 45.85344 33932 ft 487 kts 206°
2026-05-07 19:00 51.24871 45.80760 33936 ft 487 kts 206°
2026-05-07 19:01 51.18760 45.76153 33935 ft 487 kts 206°
2026-05-07 19:01 51.12627 45.71549 33935 ft 488 kts 206°
2026-05-07 19:02 51.06489 45.67069 33932 ft 489 kts 204°
2026-05-07 19:02 51.00079 45.63485 33931 ft 489 kts 197°
2026-05-07 19:03 50.93487 45.60966 33929 ft 491 kts 193°
2026-05-07 19:03 50.86826 45.58584 33926 ft 491 kts 193°
2026-05-07 19:04 50.80207 45.56208 33923 ft 491 kts 194°
2026-05-07 19:04 50.73549 45.53857 33928 ft 492 kts 193°
2026-05-07 19:05 50.66870 45.51538 33930 ft 491 kts 193°
2026-05-07 19:05 50.60242 45.49239 33930 ft 492 kts 193°
2026-05-07 19:06 50.53697 45.46970 33930 ft 493 kts 193°
2026-05-07 19:06 50.43684 45.43514 33935 ft 493 kts 194°
2026-05-07 19:07 50.36982 45.41206 33933 ft 494 kts 193°
2026-05-07 19:07 50.30292 45.38910 33936 ft 495 kts 194°
2026-05-07 19:08 50.23596 45.36619 33939 ft 495 kts 194°
2026-05-07 19:08 50.16878 45.34327 33935 ft 495 kts 193°
2026-05-07 19:09 50.10146 45.32036 33938 ft 496 kts 193°
2026-05-07 19:09 50.03395 45.29744 33942 ft 496 kts 193°
2026-05-07 19:10 49.96898 45.27042 33942 ft 497 kts 197°
2026-05-07 19:10 49.90255 45.24112 33938 ft 497 kts 197°
2026-05-07 19:11 49.83943 45.21337 33940 ft 498 kts 197°
2026-05-07 19:11 49.77301 45.18423 33932 ft 499 kts 197°
2026-05-07 19:12 49.70595 45.15490 33927 ft 500 kts 197°
2026-05-07 19:12 49.63947 45.12596 33931 ft 500 kts 197°
2026-05-07 19:13 49.57258 45.09707 33926 ft 500 kts 197°
2026-05-07 19:13 49.50562 45.06819 33926 ft 501 kts 197°
2026-05-07 19:14 49.44127 45.04053 33929 ft 501 kts 197°
2026-05-07 19:14 49.37637 45.01270 33932 ft 502 kts 197°
2026-05-07 19:15 49.30956 44.98413 33928 ft 501 kts 197°
2026-05-07 19:15 49.24227 44.95540 33927 ft 502 kts 197°
2026-05-07 19:16 49.17489 44.92674 33934 ft 502 kts 197°
2026-05-07 19:16 49.10790 44.89831 33926 ft 503 kts 197°
2026-05-07 19:17 49.04069 44.86989 33934 ft 504 kts 196°
2026-05-07 19:17 48.97296 44.84139 33936 ft 505 kts 196°
2026-05-07 19:18 48.90521 44.81684 33932 ft 504 kts 188°
2026-05-07 19:18 48.83538 44.81693 33934 ft 504 kts 171°
2026-05-07 19:19 48.76935 44.84410 33937 ft 501 kts 155°
2026-05-07 19:19 48.70742 44.89379 33939 ft 498 kts 147°
2026-05-07 19:20 48.64790 44.94579 33924 ft 498 kts 147°
2026-05-07 19:20 48.58790 44.99760 33916 ft 497 kts 147°
2026-05-07 19:21 48.52819 45.04865 33930 ft 497 kts 148°
2026-05-07 19:21 48.46802 45.09979 33930 ft 497 kts 148°
2026-05-07 19:22 48.40779 45.15082 33929 ft 496 kts 148°
2026-05-07 19:22 48.34793 45.20141 33927 ft 497 kts 147°
2026-05-07 19:23 48.28777 45.25211 33934 ft 496 kts 147°
2026-05-07 19:23 48.22807 45.30226 33934 ft 496 kts 147°
2026-05-07 19:24 48.16793 45.35267 33938 ft 495 kts 147°
2026-05-07 19:24 48.10776 45.40293 33933 ft 496 kts 147°
2026-05-07 19:25 48.04780 45.45291 33933 ft 496 kts 147°
2026-05-07 19:25 47.98784 45.50277 33938 ft 496 kts 147°
2026-05-07 19:26 47.92773 45.55261 33940 ft 496 kts 147°
2026-05-07 19:26 47.86703 45.60280 33935 ft 497 kts 147°
2026-05-07 19:27 47.80677 45.65249 33934 ft 497 kts 148°
2026-05-07 19:27 47.74635 45.70217 33932 ft 494 kts 148°
2026-05-07 19:28 47.71658 45.72654 33931 ft 479 kts 148°
2026-05-07 19:28 47.68773 45.75015 33932 ft 476 kts 147°
2026-05-07 19:28 47.63018 45.79731 33934 ft 475 kts 147°
2026-05-07 19:29 47.57234 45.84452 33935 ft 475 kts 148°
2026-05-07 19:29 47.51457 45.89157 33931 ft 475 kts 147°
2026-05-07 19:30 47.45716 45.93816 33934 ft 474 kts 147°
2026-05-07 19:30 47.39936 45.98500 33933 ft 473 kts 148°
2026-05-07 19:31 47.34169 46.03160 33929 ft 473 kts 148°
2026-05-07 19:31 47.28436 46.07778 33931 ft 473 kts 147°
2026-05-07 19:32 47.22663 46.12420 33927 ft 473 kts 147°
2026-05-07 19:32 47.19792 46.14726 33699 ft 474 kts 148°
2026-05-07 19:32 47.16934 46.17018 33442 ft 470 kts 147°
2026-05-07 19:33 47.14051 46.19324 33183 ft 467 kts 148°
2026-05-07 19:33 47.04466 46.27235 32198 ft 460 kts 139°
2026-05-07 19:33 47.02282 46.30504 31899 ft 450 kts 122°
2026-05-07 19:33 47.00567 46.34353 31362 ft 449 kts 116°
2026-05-07 19:34 46.99078 46.38336 30633 ft 450 kts 114°
2026-05-07 19:34 46.97602 46.42350 29778 ft 455 kts 115°
2026-05-07 19:34 46.96026 46.46411 28869 ft 460 kts 116°
2026-05-07 19:34 46.94398 46.50413 27953 ft 464 kts 117°
2026-05-07 19:35 46.92712 46.54417 27007 ft 468 kts 118°
2026-05-07 19:35 46.90969 46.58472 26032 ft 471 kts 119°
2026-05-07 19:35 46.89222 46.62494 25156 ft 472 kts 119°
2026-05-07 19:35 46.87461 46.66518 24503 ft 467 kts 120°
2026-05-07 19:36 46.85724 46.70470 23913 ft 462 kts 120°
2026-05-07 19:36 46.84007 46.74377 23349 ft 456 kts 120°
2026-05-07 19:36 46.82312 46.78228 22800 ft 451 kts 120°
2026-05-07 19:36 46.80615 46.82080 22252 ft 447 kts 120°
2026-05-07 19:37 46.78956 46.85841 21704 ft 442 kts 120°
2026-05-07 19:37 46.77309 46.89567 21154 ft 438 kts 120°
2026-05-07 19:37 46.75658 46.93303 20607 ft 434 kts 120°
2026-05-07 19:37 46.74045 46.96943 20071 ft 430 kts 120°
2026-05-07 19:38 46.72436 47.00570 19526 ft 427 kts 120°
2026-05-07 19:38 46.70822 47.04200 18980 ft 423 kts 120°
2026-05-07 19:38 46.69237 47.07761 18448 ft 420 kts 120°
2026-05-07 19:38 46.67644 47.11270 17916 ft 417 kts 121°
2026-05-07 19:39 46.66056 47.14735 17382 ft 414 kts 121°
2026-05-07 19:39 46.64453 47.18222 16821 ft 411 kts 121°
2026-05-07 19:39 46.62882 47.21641 16285 ft 409 kts 121°
2026-05-07 19:39 46.61319 47.25036 15752 ft 406 kts 121°
2026-05-07 19:40 46.59745 47.28456 15207 ft 404 kts 121°
2026-05-07 19:40 46.58199 47.31810 14659 ft 402 kts 121°
2026-05-07 19:40 46.56657 47.35154 14125 ft 399 kts 121°
2026-05-07 19:40 46.55121 47.38482 13583 ft 397 kts 121°
2026-05-07 19:41 46.53574 47.41829 13033 ft 395 kts 121°
2026-05-07 19:41 46.52054 47.45116 12499 ft 394 kts 121°
2026-05-07 19:41 46.50543 47.48380 11950 ft 392 kts 121°
2026-05-07 19:41 46.49033 47.51635 11401 ft 391 kts 121°
2026-05-07 19:42 46.47517 47.54900 11008 ft 384 kts 121°
2026-05-07 19:42 46.46057 47.58035 10792 ft 372 kts 121°
2026-05-07 19:42 46.44645 47.61069 10599 ft 360 kts 121°
2026-05-07 19:42 46.43259 47.64043 10417 ft 348 kts 121°
2026-05-07 19:43 46.41932 47.66890 10255 ft 333 kts 122°
2026-05-07 19:43 46.40678 47.69573 10114 ft 316 kts 122°
2026-05-07 19:43 46.39472 47.72153 9975 ft 305 kts 122°
2026-05-07 19:43 46.38287 47.74686 9711 ft 300 kts 122°
2026-05-07 19:44 46.37129 47.77168 9347 ft 298 kts 122°
2026-05-07 19:44 46.35980 47.79627 9033 ft 296 kts 122°
2026-05-07 19:44 46.34834 47.82072 8692 ft 295 kts 122°
2026-05-07 19:44 46.33677 47.84537 8337 ft 293 kts 122°
2026-05-07 19:45 46.32543 47.86955 8004 ft 292 kts 122°
2026-05-07 19:45 46.31412 47.89358 7669 ft 291 kts 121°
2026-05-07 19:45 46.30316 47.91688 7345 ft 288 kts 122°
2026-05-07 19:45 46.29201 47.94060 7018 ft 285 kts 123°
2026-05-07 19:46 46.28079 47.96440 6707 ft 284 kts 123°
2026-05-07 19:46 46.26974 47.98779 6384 ft 283 kts 123°
2026-05-07 19:46 46.25870 48.01112 6060 ft 282 kts 123°
2026-05-07 19:46 46.24759 48.03463 5736 ft 281 kts 123°
2026-05-07 19:47 46.23666 48.05774 5420 ft 280 kts 123°
2026-05-07 19:47 46.22576 48.08076 5110 ft 279 kts 123°
2026-05-07 19:47 46.21473 48.10406 4937 ft 287 kts 123°
2026-05-07 19:47 46.20333 48.12812 4939 ft 289 kts 123°
2026-05-07 19:48 46.19201 48.15207 4933 ft 289 kts 121°
2026-05-07 19:48 46.18354 48.17830 4909 ft 284 kts 102°
2026-05-07 19:48 46.18013 48.20576 4636 ft 279 kts 93°
2026-05-07 19:48 46.17810 48.23334 4285 ft 277 kts 92°
2026-05-07 19:49 46.17639 48.26058 4055 ft 270 kts 87°
2026-05-07 19:49 46.18030 48.28583 3783 ft 252 kts 53°
2026-05-07 19:49 46.19292 48.30170 3473 ft 235 kts 15°
2026-05-07 19:49 46.20851 48.30370 3213 ft 223 kts 352°
2026-05-07 19:50 46.22387 48.30237 2951 ft 220 kts 356°
2026-05-07 19:50 46.23889 48.30127 2673 ft 215 kts 342°
2026-05-07 19:50 46.25128 48.29042 2369 ft 211 kts 310°
2026-05-07 19:50 46.25850 48.27217 2141 ft 206 kts 292°
2026-05-07 19:51 46.26205 48.25263 2086 ft 197 kts 284°
2026-05-07 19:51 46.26429 48.23414 2080 ft 179 kts 282°
2026-05-07 19:51 46.26591 48.21709 2042 ft 160 kts 282°
2026-05-07 19:51 46.26717 48.20211 2020 ft 146 kts 282°
2026-05-07 19:52 46.26836 48.18762 1996 ft 146 kts 282°
2026-05-07 19:52 46.26956 48.17294 1817 ft 146 kts 281°
2026-05-07 19:52 46.27072 48.15857 1625 ft 145 kts 281°
2026-05-07 19:52 46.27186 48.14437 1471 ft 140 kts 281°
2026-05-07 19:53 46.27297 48.13061 1271 ft 138 kts 280°
2026-05-07 19:53 46.27410 48.11680 1084 ft 137 kts 280°
2026-05-07 19:53 46.27522 48.10323 902 ft 137 kts 279°
2026-05-07 19:53 46.27636 48.08969 712 ft 136 kts 280°
2026-05-07 19:54 46.27777 48.07627 521 ft 136 kts 280°
2026-05-07 19:54 46.27871 48.06259 368 ft 136 kts 275°
2026-05-07 19:54 46.27952 48.04913 195 ft 135 kts 277°
2026-05-07 19:54 46.28067 48.03580 19 ft 134 kts 278°
2026-05-07 19:55 46.28191 48.02249 -62 ft 126 kts 278°
2026-05-07 19:55 46.28277 48.01201 -76 ft 93 kts 277°
2026-05-07 19:55 46.28342 48.00429 -80 ft 63 kts 276°
2026-05-07 19:55 46.28368 48.00100 -81 ft 16 kts 281°
2026-05-07 19:56 46.28420 48.00054 -80 ft 7 kts 358°
2026-05-07 19:56 46.28461 48.00061 -78 ft 5 kts
2026-05-07 19:56 46.28495 48.00068 -77 ft 6 kts
2026-05-07 19:56 46.28538 48.00075 -76 ft 0 kts
2026-05-07 19:57 46.28559 48.00078 -75 ft 5 kts
2026-05-07 19:57 46.28587 48.00077 -73 ft 4 kts 344°
2026-05-07 19:57 46.28612 48.00006 -72 ft 10 kts 284°
2026-05-07 19:58 46.28615 47.99995 -73 ft 0 kts 295°